| time (UTC) | temp F | wind direction | speed MPH | gust MPH | rain 1hr in | rain 24hr in | rain mn in | humidity % | barometer mb |
| 20260502210446 | 44 | 209 | 0.0 | 2.0 | 0.00 | 0.01 | 0.01 | 73 | 1017.4 |
| 20260502205943 | 44 | 212 | 0.0 | 1.0 | 0.00 | 0.01 | 0.01 | 75 | 1017.5 |
| 20260502205439 | 44 | 179 | 0.0 | 1.0 | 0.00 | 0.01 | 0.01 | 73 | 1017.4 |
| 20260502204937 | 44 | 105 | 2.0 | 3.0 | 0.00 | 0.01 | 0.01 | 72 | 1017.4 |
| 20260502204434 | 44 | 205 | 0.0 | 2.0 | 0.00 | 0.01 | 0.01 | 75 | 1017.4 |
| 20260502203932 | 44 | 105 | 2.0 | 3.0 | 0.00 | 0.01 | 0.01 | 75 | 1017.4 |
| 20260502203429 | 44 | 168 | 2.0 | 5.0 | 0.00 | 0.01 | 0.01 | 74 | 1017.3 |
| 20260502202924 | 44 | 203 | 0.0 | 2.0 | 0.05 | 0.01 | 0.01 | 74 | 1017.4 |
| 20260502202422 | 44 | 83 | 2.0 | 5.0 | 0.07 | 0.01 | 0.01 | 74 | 1017.6 |
| 20260502201920 | 44 | 99 | 3.0 | 5.0 | 0.02 | 0.00 | 0.00 | 75 | 1017.8 |
| 20260502201415 | 43 | 179 | 1.0 | 3.0 | 0.00 | 0.00 | 0.00 | 77 | 1017.4 |
| 20260502200913 | 43 | 30 | 1.0 | 3.0 | 0.00 | 0.00 | 0.00 | 78 | 1017.6 |
| 20260502200408 | 43 | 72 | 2.0 | 7.0 | 0.00 | 0.00 | 0.00 | 78 | 1017.5 |
| 20260502195906 | 43 | 61 | 3.0 | 10.0 | 0.00 | 0.00 | 0.00 | 76 | 1017.7 |
| 20260502195403 | 44 | 48 | 7.0 | 8.0 | 0.00 | 0.00 | 0.00 | 76 | 1017.8 |
| 20260502194859 | 44 | 90 | 3.0 | 8.0 | 0.00 | 0.00 | 0.00 | 75 | 1017.7 |
| 20260502194356 | 44 | 165 | 1.0 | 5.0 | 0.00 | 0.00 | 0.00 | 69 | 1017.7 |
| 20260502193852 | 44 | 63 | 3.0 | 6.0 | 0.00 | 0.00 | 0.00 | 67 | 1017.9 |
| 20260502193349 | 45 | 321 | 4.0 | 5.0 | 0.00 | 0.00 | 0.00 | 71 | 1017.9 |
| 20260502192844 | 44 | 177 | 1.0 | 3.0 | 0.00 | 0.00 | 0.00 | 70 | 1018.0 |
| 20260502192342 | 44 | 127 | 1.0 | 2.0 | 0.00 | 0.00 | 0.00 | 71 | 1018.0 |
| 20260502191839 | 44 | 141 | 1.0 | 3.0 | 0.00 | 0.00 | 0.00 | 72 | 1017.9 |
| 20260502191337 | 43 | 16 | 3.0 | 6.0 | 0.00 | 0.00 | 0.00 | 71 | 1017.8 |
| 20260502190834 | 43 | 20 | 3.0 | 5.0 | 0.00 | 0.00 | 0.00 | 72 | 1018.1 |
| 20260502190331 | 43 | 286 | 3.0 | 5.0 | 0.00 | 0.00 | 0.00 | 73 | 1018.1 |
| 20260502185827 | 43 | 60 | 3.0 | 6.0 | 0.00 | 0.00 | 0.00 | 74 | 1018.2 |
| 20260502185323 | 43 | 175 | 0.0 | 6.0 | 0.00 | 0.00 | 0.00 | 77 | 1018.4 |
| 20260502184820 | 43 | 98 | 1.0 | 5.0 | 0.00 | 0.00 | 0.00 | 76 | 1018.1 |
| 20260502184315 | 43 | 136 | 2.0 | 3.0 | 0.00 | 0.00 | 0.00 | 78 | 1018.1 |
| 20260502183812 | 43 | 79 | 1.0 | 6.0 | 0.00 | 0.00 | 0.00 | 79 | 1018.2 |
| 20260502183309 | 42 | 65 | 4.0 | 5.0 | 0.00 | 0.00 | 0.00 | 80 | 1018.4 |
| 20260502182803 | 43 | 58 | 3.0 | 6.0 | 0.00 | 0.00 | 0.00 | 79 | 1018.1 |
| 20260502182259 | 44 | 41 | 8.0 | 11.0 | 0.00 | 0.00 | 0.00 | 73 | 1018.2 |
| 20260502181755 | 44 | 257 | 4.0 | 7.0 | 0.00 | 0.00 | 0.00 | 64 | 1018.2 |
| 20260502181250 | 44 | 340 | 4.0 | 5.0 | 0.00 | 0.00 | 0.00 | 64 | 1018.2 |
| 20260502180746 | 44 | 233 | 2.0 | 7.0 | 0.00 | 0.00 | 0.00 | 65 | 1018.3 |
| 20260502180244 | 44 | 301 | 4.0 | 5.0 | 0.00 | 0.00 | 0.00 | 66 | 1018.4 |
| 20260502170202 | 42 | 86 | 5.0 | 6.0 | 0.00 | 0.00 | 0.00 | 78 | 1018.7 |
| 20260502164149 | 43 | 289 | 6.0 | 14.0 | 0.00 | 0.00 | 0.00 | 69 | 1018.6 |
| 20260502163644 | 43 | 263 | 4.0 | 8.0 | 0.00 | 0.00 | 0.00 | 69 | 1018.7 |
| 20260502163141 | 43 | 345 | 8.0 | 11.0 | 0.00 | 0.00 | 0.00 | 69 | 1018.7 |
| 20260502162638 | 43 | 7 | 4.0 | 10.0 | 0.00 | 0.00 | 0.00 | 70 | 1018.7 |
| 20260502162135 | 44 | 297 | 5.0 | 7.0 | 0.00 | 0.00 | 0.00 | 69 | 1018.8 |
| 20260502161632 | 44 | 232 | 4.0 | 8.0 | 0.00 | 0.00 | 0.00 | 69 | 1019.0 |
| 20260502161129 | 44 | 321 | 6.0 | 10.0 | 0.00 | 0.00 | 0.00 | 67 | 1018.9 |
| 20260502160627 | 44 | 299 | 4.0 | 7.0 | 0.00 | 0.00 | 0.00 | 69 | 1018.8 |
| 20260502160126 | 43 | 348 | 3.0 | 5.0 | 0.00 | 0.00 | 0.00 | 71 | 1019.1 |
| 20260502152045 | 41 | 352 | 4.0 | 6.0 | 0.00 | 0.00 | 0.00 | 78 | 1018.8 |
| 20260502151543 | 41 | 99 | 2.0 | 5.0 | 0.00 | 0.00 | 0.00 | 81 | 1019.0 |
| 20260502151040 | 42 | 348 | 3.0 | 5.0 | 0.00 | 0.00 | 0.00 | 82 | 1018.8 |
| 20260502150537 | 41 | 264 | 2.0 | 3.0 | 0.00 | 0.00 | 0.00 | 84 | 1018.9 |
| 20260502130416 | 38 | 299 | 3.0 | 6.0 | 0.00 | 0.00 | 0.00 | 89 | 1018.7 |
| 20260502123353 | 37 | 353 | 5.0 | 7.0 | 0.00 | 0.00 | 0.00 | 87 | 1018.3 |
| 20260502122850 | 37 | 295 | 4.0 | 6.0 | 0.00 | 0.00 | 0.00 | 87 | 1018.4 |
| 20260502122345 | 37 | 331 | 4.0 | 6.0 | 0.00 | 0.00 | 0.00 | 87 | 1018.4 |
| 20260502121839 | 36 | 347 | 5.0 | 10.0 | 0.00 | 0.00 | 0.00 | 87 | 1018.4 |
| 20260502121335 | 36 | 290 | 4.0 | 9.0 | 0.00 | 0.00 | 0.00 | 86 | 1018.4 |
| 20260502120833 | 36 | 285 | 5.0 | 7.0 | 0.00 | 0.00 | 0.00 | 86 | 1018.3 |
| 20260502120329 | 36 | 351 | 8.0 | 9.0 | 0.00 | 0.00 | 0.00 | 86 | 1018.1 |
| 20260502115827 | 35 | 324 | 4.0 | 6.0 | 0.00 | 0.00 | 0.00 | 86 | 1018.2 |
| 20260502115324 | 36 | 303 | 3.0 | 5.0 | 0.00 | 0.00 | 0.00 | 86 | 1018.3 |
| 20260502114820 | 35 | 212 | 1.0 | 3.0 | 0.00 | 0.00 | 0.00 | 86 | 1018.2 |
| 20260502114317 | 35 | 224 | 3.0 | 5.0 | 0.00 | 0.00 | 0.00 | 87 | 1018.1 |
| 20260502113814 | 35 | 230 | 2.0 | 6.0 | 0.00 | 0.00 | 0.00 | 88 | 1018.2 |
| 20260502113312 | 34 | 227 | 2.0 | 2.0 | 0.00 | 0.00 | 0.00 | 89 | 1018.3 |
| 20260502112810 | 34 | 221 | 0.0 | 1.0 | 0.00 | 0.00 | 0.00 | 89 | 1018.4 |
| 20260502112307 | 34 | 221 | 1.0 | 1.0 | 0.00 | 0.00 | 0.00 | 89 | 1018.3 |
| 20260502111804 | 34 | 234 | 2.0 | 2.0 | 0.00 | 0.00 | 0.00 | 90 | 1018.0 |
| 20260502111301 | 33 | 217 | 1.0 | 2.0 | 0.00 | 0.00 | 0.00 | 90 | 1018.0 |
| 20260502110759 | 33 | 224 | 1.0 | 1.0 | 0.00 | 0.00 | 0.00 | 91 | 1017.9 |
| 20260502110256 | 33 | 238 | 0.0 | 1.0 | 0.00 | 0.00 | 0.00 | 91 | 1017.9 |
| 20260502105754 | 33 | 224 | 0.0 | 2.0 | 0.00 | 0.00 | 0.00 | 91 | 1018.0 |
| 20260502105249 | 33 | 222 | 2.0 | 2.0 | 0.00 | 0.00 | 0.00 | 91 | 1017.6 |
| 20260502104748 | 33 | 217 | 0.0 | 2.0 | 0.00 | 0.00 | 0.00 | 91 | 1017.7 |
| 20260502104245 | 33 | 218 | 0.0 | 1.0 | 0.00 | 0.00 | 0.00 | 91 | 1017.5 |
| 20260502103742 | 33 | 220 | 1.0 | 1.0 | 0.00 | 0.00 | 0.00 | 90 | 1017.6 |
| 20260502103240 | 33 | 218 | 0.0 | 2.0 | 0.00 | 0.00 | 0.00 | 90 | 1017.7 |
| 20260502102738 | 33 | 231 | 2.0 | 2.0 | 0.00 | 0.00 | 0.00 | 90 | 1017.8 |
| 20260502102233 | 33 | 225 | 2.0 | 3.0 | 0.00 | 0.00 | 0.00 | 90 | 1017.8 |
| 20260502101732 | 33 | 236 | 2.0 | 3.0 | 0.00 | 0.00 | 0.00 | 90 | 1017.6 |
| 20260502101230 | 33 | 224 | 2.0 | 2.0 | 0.00 | 0.00 | 0.00 | 90 | 1017.7 |
| 20260502100728 | 33 | 228 | 1.0 | 2.0 | 0.00 | 0.00 | 0.00 | 90 | 1017.8 |
| 20260502100226 | 33 | 237 | 2.0 | 2.0 | 0.00 | 0.00 | 0.00 | 89 | 1017.5 |
| 20260502091200 | 35 | 228 | 1.0 | 2.0 | 0.00 | 0.00 | 0.00 | 86 | 1017.6 |
| 20260502090657 | 35 | 245 | 1.0 | 3.0 | 0.00 | 0.00 | 0.00 | 87 | 1017.6 |
| 20260502090154 | 35 | 213 | 0.0 | 1.0 | 0.00 | 0.00 | 0.00 | 87 | 1017.5 |
| 20260502071049 | 36 | 228 | 2.0 | 2.0 | 0.00 | 0.00 | 0.00 | 90 | 1017.2 |
| 20260502070547 | 36 | 223 | 1.0 | 1.0 | 0.00 | 0.00 | 0.00 | 90 | 1017.2 |
| 20260502070045 | 36 | 228 | 1.0 | 1.0 | 0.00 | 0.00 | 0.00 | 89 | 1017.2 |
| 20260502065543 | 36 | 221 | 1.0 | 1.0 | 0.00 | 0.00 | 0.00 | 90 | 1017.1 |
| 20260502065040 | 36 | 219 | 0.0 | 1.0 | 0.00 | 0.00 | 0.00 | 89 | 1017.2 |
| 20260502064539 | 37 | 219 | 0.0 | 1.0 | 0.00 | 0.00 | 0.00 | 88 | 1017.0 |
| 20260502064036 | 37 | 243 | 1.0 | 2.0 | 0.00 | 0.00 | 0.00 | 88 | 1017.1 |
| 20260502063534 | 37 | 252 | 2.0 | 3.0 | 0.00 | 0.00 | 0.00 | 88 | 1017.3 |
| 20260502063031 | 37 | 217 | 1.0 | 2.0 | 0.00 | 0.00 | 0.00 | 88 | 1017.1 |
| 20260502062528 | 37 | 234 | 1.0 | 2.0 | 0.00 | 0.00 | 0.00 | 88 | 1017.4 |
| 20260502062026 | 37 | 219 | 0.0 | 3.0 | 0.00 | 0.00 | 0.00 | 87 | 1017.2 |
| 20260502061524 | 37 | 222 | 1.0 | 2.0 | 0.00 | 0.00 | 0.00 | 88 | 1017.4 |
| 20260502061015 | 37 | 237 | 2.0 | 3.0 | 0.00 | 0.00 | 0.00 | 89 | 1017.3 |
| 20260502060510 | 38 | 228 | 1.0 | 1.0 | 0.00 | 0.00 | 0.00 | 90 | 1017.3 |
| 20260502060008 | 38 | 225 | 1.0 | 1.0 | 0.00 | 0.00 | 0.00 | 91 | 1017.3 |
| 20260502055504 | 38 | 229 | 1.0 | 2.0 | 0.00 | 0.00 | 0.00 | 91 | 1017.3 |
| 20260502055003 | 38 | 242 | 2.0 | 3.0 | 0.00 | 0.00 | 0.00 | 92 | 1017.4 |
| 20260502054501 | 38 | 222 | 1.0 | 2.0 | 0.00 | 0.00 | 0.00 | 93 | 1017.3 |
| 20260502053958 | 38 | 226 | 1.0 | 2.0 | 0.00 | 0.00 | 0.00 | 95 | 1017.4 |
| 20260502053455 | 38 | 226 | 2.0 | 3.0 | 0.00 | 0.00 | 0.00 | 96 | 1017.2 |
| 20260502052953 | 38 | 228 | 2.0 | 2.0 | 0.00 | 0.00 | 0.00 | 96 | 1017.3 |
| 20260502052451 | 38 | 239 | 1.0 | 2.0 | 0.00 | 0.00 | 0.00 | 97 | 1017.4 |
| 20260502051949 | 39 | 210 | 1.0 | 3.0 | 0.00 | 0.00 | 0.00 | 97 | 1017.3 |
| 20260502051447 | 39 | 226 | 2.0 | 3.0 | 0.00 | 0.00 | 0.00 | 98 | 1017.3 |
| 20260502050944 | 39 | 222 | 2.0 | 2.0 | 0.00 | 0.00 | 0.00 | 98 | 1017.2 |
| 20260502050440 | 39 | 213 | 1.0 | 2.0 | 0.00 | 0.00 | 0.00 | 98 | 1017.4 |
| 20260502045937 | 39 | 243 | 3.0 | 3.0 | 0.00 | 0.00 | 0.00 | 98 | 1017.3 |
| 20260502045434 | 39 | 226 | 2.0 | 2.0 | 0.00 | 0.00 | 0.00 | 98 | 1017.1 |
| 20260502044931 | 39 | 216 | 0.0 | 1.0 | 0.00 | 0.00 | 0.00 | 98 | 1017.1 |
| 20260502044427 | 39 | 225 | 2.0 | 2.0 | 0.00 | 0.00 | 0.00 | 97 | 1017.3 |
| 20260502043924 | 40 | 224 | 1.0 | 2.0 | 0.00 | 0.00 | 0.00 | 97 | 1017.3 |
| 20260502043422 | 40 | 217 | 1.0 | 2.0 | 0.00 | 0.00 | 0.00 | 97 | 1016.8 |
| 20260502042921 | 40 | 219 | 1.0 | 2.0 | 0.00 | 0.00 | 0.00 | 97 | 1017.2 |
| 20260502042419 | 40 | 223 | 1.0 | 1.0 | 0.00 | 0.00 | 0.00 | 97 | 1017.2 |
| 20260502041916 | 40 | 234 | 1.0 | 1.0 | 0.00 | 0.00 | 0.00 | 97 | 1017.2 |
| 20260502041414 | 40 | 221 | 2.0 | 2.0 | 0.00 | 0.00 | 0.00 | 97 | 1017.0 |
| 20260502040910 | 41 | 217 | 1.0 | 2.0 | 0.00 | 0.00 | 0.00 | 96 | 1017.0 |
| 20260502040407 | 41 | 220 | 0.0 | 1.0 | 0.00 | 0.00 | 0.00 | 96 | 1017.2 |
| 20260502035903 | 41 | 219 | 1.0 | 2.0 | 0.00 | 0.41 | 0.41 | 96 | 1017.3 |
| 20260502035359 | 41 | 219 | 1.0 | 1.0 | 0.00 | 0.41 | 0.41 | 96 | 1017.2 |
| 20260502034857 | 41 | 217 | 0.0 | 2.0 | 0.00 | 0.41 | 0.41 | 96 | 1017.2 |
| 20260502034355 | 41 | 241 | 2.0 | 2.0 | 0.00 | 0.41 | 0.41 | 96 | 1017.4 |
| 20260502033854 | 41 | 229 | 1.0 | 1.0 | 0.00 | 0.41 | 0.41 | 96 | 1017.3 |
| 20260502033351 | 41 | 225 | 2.0 | 2.0 | 0.00 | 0.41 | 0.41 | 96 | 1017.3 |
| 20260502032847 | 41 | 222 | 1.0 | 2.0 | 0.00 | 0.41 | 0.41 | 96 | 1017.2 |
| 20260502032343 | 41 | 239 | 2.0 | 2.0 | 0.00 | 0.41 | 0.41 | 96 | 1017.3 |
| 20260502031841 | 41 | 237 | 2.0 | 3.0 | 0.00 | 0.41 | 0.41 | 96 | 1017.2 |
| 20260502031340 | 41 | 230 | 2.0 | 3.0 | 0.00 | 0.41 | 0.41 | 96 | 1017.1 |
| 20260502030838 | 41 | 233 | 3.0 | 3.0 | 0.00 | 0.41 | 0.41 | 96 | 1016.8 |
| 20260502030336 | 41 | 224 | 1.0 | 1.0 | 0.00 | 0.41 | 0.41 | 96 | 1017.1 |
| 20260502025832 | 41 | 217 | 1.0 | 1.0 | 0.00 | 0.41 | 0.41 | 96 | 1016.8 |
| 20260502025330 | 41 | 225 | 1.0 | 1.0 | 0.00 | 0.41 | 0.41 | 96 | 1017.0 |
| 20260502024828 | 41 | 218 | 1.0 | 1.0 | 0.00 | 0.41 | 0.41 | 96 | 1016.7 |
| 20260502024325 | 41 | 220 | 0.0 | 1.0 | 0.00 | 0.41 | 0.41 | 96 | 1016.7 |
| 20260502023823 | 41 | 220 | 0.0 | 1.0 | 0.00 | 0.41 | 0.41 | 96 | 1016.8 |
| 20260502023321 | 41 | 218 | 0.0 | 1.0 | 0.00 | 0.41 | 0.41 | 96 | 1017.0 |
| 20260502022819 | 41 | 227 | 1.0 | 2.0 | 0.00 | 0.41 | 0.41 | 95 | 1016.6 |
| 20260502022315 | 41 | 220 | 1.0 | 1.0 | 0.00 | 0.41 | 0.41 | 95 | 1016.4 |
| 20260502021811 | 41 | 222 | 0.0 | 1.0 | 0.00 | 0.41 | 0.41 | 95 | 1016.7 |
| 20260502021309 | 41 | 221 | 1.0 | 1.0 | 0.00 | 0.41 | 0.41 | 95 | 1016.6 |
| 20260502020806 | 41 | 227 | 1.0 | 2.0 | 0.00 | 0.41 | 0.41 | 95 | 1016.6 |
| 20260502020303 | 42 | 223 | 1.0 | 2.0 | 0.00 | 0.41 | 0.41 | 95 | 1016.5 |
| 20260502015800 | 42 | 227 | 1.0 | 2.0 | 0.00 | 0.41 | 0.41 | 95 | 1016.4 |
| 20260502015256 | 42 | 222 | 1.0 | 1.0 | 0.00 | 0.41 | 0.41 | 95 | 1016.4 |
| 20260502014755 | 42 | 222 | 1.0 | 2.0 | 0.00 | 0.41 | 0.41 | 95 | 1016.2 |
| 20260502014251 | 42 | 222 | 1.0 | 3.0 | 0.00 | 0.41 | 0.41 | 95 | 1016.2 |
| 20260502013747 | 42 | 220 | 1.0 | 1.0 | 0.00 | 0.41 | 0.41 | 94 | 1016.2 |
| 20260502013243 | 42 | 218 | 2.0 | 2.0 | 0.00 | 0.41 | 0.41 | 94 | 1016.1 |
| 20260502012740 | 42 | 214 | 0.0 | 1.0 | 0.00 | 0.41 | 0.41 | 95 | 1016.2 |
| 20260502012238 | 42 | 222 | 0.0 | 1.0 | 0.00 | 0.41 | 0.41 | 95 | 1016.1 |
| 20260502011735 | 42 | 220 | 1.0 | 3.0 | 0.00 | 0.41 | 0.41 | 96 | 1015.9 |
| 20260502011231 | 42 | 229 | 1.0 | 2.0 | 0.00 | 0.41 | 0.41 | 96 | 1015.9 |
| 20260502010729 | 42 | 211 | 1.0 | 3.0 | 0.00 | 0.41 | 0.41 | 97 | 1016.0 |
| 20260502010224 | 42 | 271 | 3.0 | 5.0 | 0.00 | 0.41 | 0.41 | 97 | 1016.0 |
| 20260502005722 | 42 | 218 | 0.0 | 0.0 | 0.00 | 0.41 | 0.41 | 97 | 1016.0 |
| 20260502005220 | 42 | 215 | 0.0 | 0.0 | 0.00 | 0.41 | 0.41 | 97 | 1015.9 |
| 20260502004715 | 42 | 218 | 0.0 | 1.0 | 0.00 | 0.41 | 0.41 | 97 | 1016.1 |
| 20260502004212 | 42 | 209 | 0.0 | 1.0 | 0.00 | 0.41 | 0.41 | 97 | 1015.9 |
| 20260502003710 | 42 | 222 | 1.0 | 1.0 | 0.00 | 0.41 | 0.41 | 97 | 1015.9 |
| 20260502003208 | 42 | 222 | 1.0 | 1.0 | 0.00 | 0.41 | 0.41 | 97 | 1015.9 |
| 20260502002703 | 42 | 224 | 1.0 | 1.0 | 0.00 | 0.41 | 0.41 | 97 | 1015.9 |
| 20260502002201 | 42 | 224 | 0.0 | 0.0 | 0.00 | 0.41 | 0.41 | 97 | 1015.7 |
| 20260502001658 | 42 | 217 | 0.0 | 1.0 | 0.00 | 0.41 | 0.41 | 96 | 1015.7 |
| 20260502001155 | 42 | 216 | 0.0 | 1.0 | 0.00 | 0.41 | 0.41 | 96 | 1015.8 |
| 20260502000653 | 42 | 227 | 0.0 | 1.0 | 0.00 | 0.41 | 0.41 | 96 | 1015.6 |
| 20260502000151 | 42 | 219 | 0.0 | 0.0 | 0.00 | 0.41 | 0.41 | 96 | 1015.3 |
| 20260501235646 | 42 | 224 | 0.0 | 1.0 | 0.00 | 0.41 | 0.41 | 96 | 1015.4 |
| 20260501235143 | 42 | 239 | 1.0 | 1.0 | 0.00 | 0.41 | 0.41 | 95 | 1015.3 |
| 20260501234638 | 42 | 218 | 0.0 | 1.0 | 0.00 | 0.41 | 0.41 | 95 | 1015.3 |
| 20260501234136 | 42 | 266 | 2.0 | 2.0 | 0.00 | 0.41 | 0.41 | 95 | 1015.1 |
| 20260501233634 | 42 | 222 | 0.0 | 2.0 | 0.00 | 0.41 | 0.41 | 95 | 1015.1 |
| 20260501233131 | 42 | 225 | 0.0 | 1.0 | 0.00 | 0.41 | 0.41 | 95 | 1015.2 |
| 20260501232627 | 42 | 224 | 1.0 | 2.0 | 0.07 | 0.41 | 0.41 | 94 | 1015.2 |
| 20260501232124 | 42 | 225 | 2.0 | 2.0 | 0.12 | 0.41 | 0.41 | 93 | 1015.0 |
| 20260501231622 | 42 | 63 | 6.0 | 13.0 | 0.12 | 0.40 | 0.40 | 93 | 1015.0 |
| 20260501231120 | 42 | 347 | 3.0 | 6.0 | 0.19 | 0.39 | 0.39 | 93 | 1015.2 |
| 20260501230618 | 42 | 344 | 6.0 | 9.0 | 0.24 | 0.38 | 0.38 | 91 | 1015.3 |
| 20260501230116 | 43 | 331 | 11.0 | 15.0 | 0.12 | 0.36 | 0.36 | 89 | 1015.2 |
| 20260501225613 | 44 | 5 | 5.0 | 13.0 | 0.07 | 0.34 | 0.34 | 86 | 1015.3 |
| 20260501225109 | 45 | 273 | 3.0 | 7.0 | 0.07 | 0.34 | 0.34 | 87 | 1015.3 |
| 20260501224607 | 45 | 342 | 2.0 | 5.0 | 0.00 | 0.33 | 0.33 | 87 | 1015.1 |
| 20260501224103 | 45 | 319 | 4.0 | 7.0 | 0.00 | 0.33 | 0.33 | 86 | 1014.9 |
| 20260501223600 | 45 | 351 | 2.0 | 6.0 | 0.00 | 0.33 | 0.33 | 85 | 1015.3 |
| 20260501223056 | 45 | 20 | 3.0 | 3.0 | 0.00 | 0.33 | 0.33 | 85 | 1015.3 |
| 20260501222553 | 45 | 12 | 4.0 | 6.0 | 0.00 | 0.33 | 0.33 | 84 | 1015.3 |
| 20260501222050 | 46 | 56 | 3.0 | 5.0 | 0.00 | 0.33 | 0.33 | 85 | 1015.0 |
| 20260501221546 | 46 | 29 | 3.0 | 5.0 | 0.00 | 0.33 | 0.33 | 85 | 1015.1 |
| 20260501221044 | 46 | 46 | 2.0 | 5.0 | 0.00 | 0.33 | 0.33 | 85 | 1015.3 |
| 20260501220542 | 45 | 10 | 5.0 | 8.0 | 0.00 | 0.33 | 0.33 | 84 | 1015.0 |
| 20260501220038 | 46 | 7 | 5.0 | 7.0 | 0.00 | 0.33 | 0.33 | 84 | 1015.0 |
| 20260501215534 | 46 | 168 | 1.0 | 5.0 | 0.00 | 0.33 | 0.33 | 84 | 1015.0 |
| 20260501215030 | 46 | 344 | 5.0 | 6.0 | 0.00 | 0.33 | 0.33 | 83 | 1014.9 |
| 20260501214525 | 46 | 336 | 5.0 | 6.0 | 0.00 | 0.33 | 0.33 | 81 | 1014.9 |
| 20260501214021 | 46 | 336 | 4.0 | 8.0 | 0.00 | 0.33 | 0.33 | 81 | 1014.6 |
| 20260501213519 | 46 | 31 | 7.0 | 8.0 | 0.00 | 0.33 | 0.33 | 80 | 1014.5 |
| 20260501213015 | 46 | 36 | 3.0 | 9.0 | 0.00 | 0.33 | 0.33 | 82 | 1014.7 |
| 20260501212511 | 46 | 343 | 6.0 | 9.0 | 0.00 | 0.33 | 0.33 | 82 | 1014.7 |
| 20260501212008 | 47 | 270 | 2.0 | 5.0 | 0.00 | 0.33 | 0.33 | 81 | 1014.5 |
| 20260501211505 | 46 | 333 | 6.0 | 8.0 | 0.00 | 0.33 | 0.33 | 81 | 1014.7 |
| 20260501211003 | 46 | 341 | 6.0 | 9.0 | 0.00 | 0.33 | 0.33 | 82 | 1014.6 |